TimeEDT,TemperatureF,Dew PointF,Humidity,Sea Level PressureIn,VisibilityMPH,Wind Direction,Wind SpeedMPH,Gust SpeedMPH,PrecipitationIn,Events,Conditions,WindDirDegrees,DateUTC
12:53 AM,64.0,55.9,75,30.29,10.0,Calm,Calm,-,N/A,,Clear,0,2012-09-13 04:53:00
1:53 AM,63.0,55.9,78,30.29,10.0,ENE,3.5,-,N/A,,Partly Cloudy,70,2012-09-13 05:53:00
2:53 AM,64.0,55.9,75,30.28,10.0,ENE,3.5,-,N/A,,Scattered Clouds,70,2012-09-13 06:53:00
3:53 AM,63.0,55.9,78,30.27,10.0,ENE,3.5,-,N/A,,Scattered Clouds,60,2012-09-13 07:53:00
4:53 AM,63.0,55.9,78,30.28,10.0,ENE,4.6,-,N/A,,Scattered Clouds,70,2012-09-13 08:53:00
5:53 AM,62.1,55.9,80,30.29,10.0,NE,3.5,-,N/A,,Clear,40,2012-09-13 09:53:00
6:53 AM,61.0,55.9,83,30.30,10.0,NNE,4.6,-,N/A,,Clear,30,2012-09-13 10:53:00
7:53 AM,62.1,55.9,80,30.32,10.0,NE,4.6,-,N/A,,Clear,50,2012-09-13 11:53:00
8:53 AM,64.0,55.9,75,30.33,10.0,ENE,6.9,-,N/A,,Clear,60,2012-09-13 12:53:00
9:53 AM,68.0,55.9,65,30.34,10.0,NE,9.2,-,N/A,,Clear,50,2012-09-13 13:53:00
10:53 AM,71.1,55.0,57,30.34,10.0,East,8.1,-,N/A,,Clear,80,2012-09-13 14:53:00
11:53 AM,72.0,54.0,53,30.33,10.0,East,9.2,-,N/A,,Mostly Cloudy,80,2012-09-13 15:53:00
12:53 PM,73.9,55.0,52,30.32,10.0,East,11.5,-,N/A,,Partly Cloudy,80,2012-09-13 16:53:00
1:53 PM,73.9,55.9,53,30.30,10.0,Calm,Calm,-,N/A,,Scattered Clouds,0,2012-09-13 17:53:00
2:53 PM,75.9,55.9,50,30.27,10.0,East,6.9,-,N/A,,Mostly Cloudy,90,2012-09-13 18:53:00
3:53 PM,75.0,55.9,51,30.25,10.0,Variable,5.8,-,N/A,,Scattered Clouds,0,2012-09-13 19:53:00
4:53 PM,75.0,55.9,51,30.24,10.0,Variable,6.9,-,N/A,,Mostly Cloudy,0,2012-09-13 20:53:00
5:53 PM,75.0,57.0,53,30.23,10.0,ESE,6.9,-,N/A,,Clear,110,2012-09-13 21:53:00
6:53 PM,73.0,57.9,59,30.24,10.0,ENE,8.1,-,N/A,,Clear,70,2012-09-13 22:53:00
8:53 PM,70.0,57.0,63,30.26,10.0,ENE,6.9,-,N/A,,Clear,70,2012-09-14 00:53:00
9:53 PM,69.1,57.0,65,30.26,10.0,ENE,6.9,-,N/A,,Partly Cloudy,70,2012-09-14 01:53:00
10:53 PM,69.1,57.0,65,30.27,10.0,ENE,5.8,-,N/A,,Mostly Cloudy,70,2012-09-14 02:53:00
11:53 PM,68.0,57.0,68,30.27,10.0,ENE,6.9,-,N/A,,Overcast,70,2012-09-14 03:53:00